Springfield Beckley Municipal Airport
KSGH : now visible

Airfield :











YOU CAN JOIN US ON...

 
LOGIN :

Register | Disclaimer

   EN    FR    IT 

 









Legend :    VFR   Marginal VFR   IFR   Intensive IFR   Very Intensive IFR
Visi :
Ceiling :
>= 8 km
>= 3000ft
5 to 8 km
1000 to 3000 ft
1500m to 5 km
500 to 1000 ft
800 to 1500m
200 to 500 ft
< 800m
< 200 ft
Symbols :   Thunderstorms  Fog  Heavy snow  Heavy precipitations  Wind > 20 kt






- Airport Elevation : 1051 ft


KSGH - Springfield Beckley Municipal

CURRENT METAR :
  • 161956Z AUTO 26008KT 10SM SCT040 07/00 A3007 RMK AO2 SLP190 P0002 T00670000

EXPIRED METARs :
  • 161856Z AUTO 27006KT 10SM OVC040 04/M01 A3007 RMK AO2 SLP194 P0003 T00441011
  • 161756Z AUTO 28006KT 10SM OVC032 03/M02 A3009 RMK AO2 SLP199 P0004 60053 T00331017 10033 20017 58006

TAF N/A



MET'MAP, your aeronautical weather chart ! - Copyright ORBIFLY December 2007 - Disclaimer

ORBIFLY MET'MAP TEAM :

Programming & Development : Alexandra Zaïnal
Concept & original design : Baudouin d'Aumeries
Assistance for programming : Marc-Olivier Méhu
Technical & hardware support : Manuel Goepfert

Contact : metmap@orbifly.com




SOURCES & CREDITS :

   NOAA       Earth
Advisory